Flag for Maldives Weather past 2 weeks in Male, Maldives

Now
82 °F

Passing clouds.


Feels Like: 89 °F
Forecast: 83 / 89 °F
Wind: 7 mph from Northeast

Location: Male Airport

Current Time: Mar 5, 2015 at 6:26:03 AM

Latest Report: Mar 5, 2015 at 5:00 AM


Visibility: N/A

Pressure: 29.83 "Hg

Humidity: 79%

Dew point: 75 °F

Location of MaleLocation

Historic Weather in Male — Graph

°F

Male temperature yesterday

Maximum temperature yesterday: 88 °F (at 12:00 PM)
Minimum temperature yesterday: 81 °F (at 6:00 AM)
Average temperature yesterday: 84 °F

Past Weeks' High & Low Weather Summary

 TemperatureHumidityPressure
High88 °F (Feb 20, 11:00 AM)89% (Feb 25, 2:00 AM)29.95 "Hg (Feb 25, 2:00 AM)
Low77 °F (Feb 19, 6:00 AM)55% (Feb 19, 12:00 PM)29.53 "Hg (Feb 25, 2:00 PM)
Average84 °F72%29.86 "Hg
* Reported Feb 18 5:00 AM — Mar 5 4:00 AM, Male, Weather by CustomWeather, © 2015

Note: Actual official high and low records may vary slightly from our data, if they occured in-between our weather recording intervals... More about our weather records

Advertising

Male weather history for previous 24 hours

 ConditionsComfort  
Time TempWeatherWind HumidityBarometerVisibility
4:00 AM
Thu, Mar 5
82 °FPassing clouds.8 mph79%29.83 "HgN/A
3:00 AM82 °FPassing clouds.6 mph79%29.83 "HgN/A
1:00 AM82 °FPassing clouds.6 mph79%29.86 "HgN/A
12:00 AM82 °FPassing clouds.7 mph79%29.86 "HgN/A
11:00 PM
Wed, Mar 4
82 °FPassing clouds.6 mph79%29.89 "HgN/A
10:00 PM82 °FPassing clouds.7 mph79%29.89 "HgN/A
9:00 PM84 °FPassing clouds.8 mph74%29.89 "HgN/A
8:00 PM84 °FPartly cloudy.6 mph74%29.86 "HgN/A
7:00 PM84 °FPassing clouds.6 mph74%29.83 "HgN/A
6:00 PM86 °FScattered clouds.6 mph70%29.83 "HgN/A
5:00 PM86 °FScattered clouds.3 mph70%29.83 "HgN/A
4:00 PM88 °FScattered clouds.5 mph66%29.83 "HgN/A
3:00 PM86 °FScattered clouds.3 mph70%29.83 "HgN/A
2:00 PM86 °FPassing clouds.6 mph70%29.83 "HgN/A
1:00 PM88 °FPassing clouds.5 mph66%29.86 "HgN/A
12:00 PM88 °FPassing clouds.6 mph66%29.89 "HgN/A
11:00 AM86 °FPassing clouds.3 mph70%29.95 "HgN/A
10:00 AM86 °FPassing clouds.5 mph70%29.95 "HgN/A
9:00 AM84 °FPassing clouds.3 mph74%29.95 "HgN/A
8:00 AM84 °FPassing clouds.2 mph74%29.92 "HgN/A
7:00 AM82 °FPassing clouds.3 mph79%29.89 "HgN/A
6:00 AM81 °FPassing clouds.3 mph84%29.86 "HgN/A
Weather by CustomWeather, © 2015

See weather overviewHow to use our weather pages